Tracking 19651 objects as of 23-Apr-2019
HD Live streaming from Space Station
objects crossing your sky now

CBERS 1 DEB

Track CBERS 1 DEB now!
10-day predictions


NORAD ID: 34213
Int'l Code: 1999-057RQ
Perigee: 637.1 km
Apogee: 648.0 km
Inclination: 98.3 °
Period: 97.4 minutes
Semi major axis: 7013 km
RCS: 0.0133 m2 (small)
Launch date: October 14, 1999
Source: China/Brazil (CHBZ)
Launch site: Taiyaun Space Center, China (TSC)

Note: This is SATELLITE DEBRIS
aabbcc
Your satellite tracking list
Your tracking list is empty




NASA's NSSDC Master Catalog

Two Line Element Set (TLE):
1 34213U 99057RQ  19111.31384352  .00002292  00000-0  32459-3 0  9996
2 34213  98.2686 139.2239 0007722  12.2545  49.4962 14.78072574619117
Source of the keplerian elements: AFSPC